Weather History for Glenwood, MN

Change the Weather History Date:

Sunday, November 6, 2011

  Actual Average Record
Temperature  
Mean Temperature 42 °F -  
Max Temperature 46 °F 43 °F 72 °F (1975)
Min Temperature 39 °F 25 °F -47 °F (2008)
Degree Days  
Heating Degree Days 22    
Moisture  
Dew Point 34 °F    
Average Humidity 68    
Maximum Humidity 87    
Minimum Humidity 43    
Precipitation  
Precipitation 0.00 in - - ()
Sea Level Pressure  
Sea Level Pressure 29.57 in    
Wind  
Wind Speed 20 mph (SSW)    
Max Wind Speed 30 mph    
Max Gust Speed 39 mph    
Visibility 9 miles    
Events Rain    
Averages and records for this station are not official NWS values.
T = Trace of Precipitation, MM = Missing Value Source: NWS Daily Summary

Daily Weather History Graph

Daily Weather History Graph

Search for Another Location

Airport:

Trip Planner

Search our weather history database for the weather conditions in past years. The results will help you decide how hot, cold, wet, or windy it might be!

Date:

Astronomy

Nov. 06, 2011 Rise Set
Actual Time 7:07 AM CST 5:01 PM CST
Civil Twilight 6:36 AM CST 5:32 PM CST
Nautical Twilight 6:00 AM CST 6:08 PM CST
Astronomical Twilight 5:26 AM CST 6:42 PM CST
Moon 2:54 PM CST (11/6) 3:05 AM CST (11/6)
Length of Visible Light 10h 56m
Length of Day
9h 53m
Waxing Gibbous, 86% of the Moon is Illuminated
Nov 6
Waxing Gibbous
Nov 10
Full
Nov 18
Last Quarter
Nov 25
New
Dec 2
First Quarter

Hourly Weather History & Observations

Time (CST) Temp. Windchill Dew Point Humidity Pressure Visibility Wind Dir Wind Speed Gust Speed Precip Events Conditions
12:13 AM 46.4 °F 38.5 °F 39.2 °F 76% 29.60 in 10.0 mi SSE 21.9 mph 31.1 mph N/A   Overcast
12:34 AM 46.4 °F 39.0 °F 39.2 °F 76% 29.59 in 10.0 mi SSE 19.6 mph 26.5 mph N/A   Overcast
12:54 AM 46.4 °F 38.7 °F 39.2 °F 76% 29.58 in 10.0 mi SSE 20.7 mph 26.5 mph N/A   Overcast
1:14 AM 46.4 °F 38.5 °F 39.2 °F 76% 29.58 in 10.0 mi SSE 21.9 mph 25.3 mph N/A   Overcast
1:33 AM 46.4 °F 39.0 °F 39.2 °F 76% 29.57 in 10.0 mi SSE 19.6 mph 24.2 mph N/A   Mostly Cloudy
1:54 AM 46.4 °F 39.0 °F 39.2 °F 76% 29.56 in 10.0 mi SSE 19.6 mph 25.3 mph N/A   Mostly Cloudy
1:13 AM 46.4 °F 39.2 °F 41.0 °F 81% 29.56 in 7.0 mi SSE 18.4 mph 26.5 mph N/A Rain Rain
1:34 AM 46.4 °F 39.2 °F 41.0 °F 81% 29.55 in 10.0 mi SSE 18.4 mph - N/A   Scattered Clouds
1:54 AM 46.4 °F 38.3 °F 41.0 °F 81% 29.55 in 10.0 mi SE 23.0 mph 27.6 mph N/A   Scattered Clouds
2:13 AM 46.4 °F 39.5 °F 39.2 °F 76% 29.54 in 10.0 mi SSE 17.3 mph 25.3 mph N/A   Scattered Clouds
2:33 AM 46.4 °F 39.0 °F 39.2 °F 76% 29.53 in 10.0 mi SSE 19.6 mph 26.5 mph N/A   Scattered Clouds
2:54 AM 46.4 °F 38.7 °F 39.2 °F 76% 29.52 in 10.0 mi SSE 20.7 mph 29.9 mph N/A   Scattered Clouds
3:13 AM 46.4 °F 39.0 °F 41.0 °F 81% 29.52 in 7.0 mi SSE 19.6 mph 25.3 mph N/A Rain Rain
3:34 AM 46.4 °F 39.2 °F 41.0 °F 81% 29.51 in 5.0 mi SSE 18.4 mph - N/A   Drizzle
3:53 AM 44.6 °F 37.4 °F 41.0 °F 87% 29.50 in 7.0 mi SE 16.1 mph - N/A   Light Drizzle
4:14 AM 44.6 °F 36.9 °F 41.0 °F 87% 29.49 in 7.0 mi SE 18.4 mph - N/A   Mostly Cloudy
4:34 AM 44.6 °F 37.2 °F 41.0 °F 87% 29.48 in 7.0 mi SE 17.3 mph 21.9 mph N/A   Mostly Cloudy
4:54 AM 44.6 °F 36.6 °F 41.0 °F 87% 29.48 in 7.0 mi SE 19.6 mph 25.3 mph N/A   Mostly Cloudy
5:13 AM 46.4 °F 39.8 °F 41.0 °F 81% 29.48 in 7.0 mi SSE 16.1 mph 26.5 mph N/A   Overcast
5:34 AM 46.4 °F 39.2 °F 41.0 °F 81% 29.48 in 7.0 mi SSE 18.4 mph 24.2 mph N/A   Overcast
5:53 AM 46.4 °F 39.2 °F 41.0 °F 81% 29.47 in 7.0 mi SSE 18.4 mph 23.0 mph N/A   Mostly Cloudy
6:13 AM 46.4 °F 38.7 °F 39.2 °F 76% 29.47 in 10.0 mi SSE 20.7 mph 24.2 mph N/A   Mostly Cloudy
6:34 AM 46.4 °F 39.2 °F 39.2 °F 76% 29.46 in 10.0 mi SSE 18.4 mph 24.2 mph N/A   Mostly Cloudy
6:53 AM 46.4 °F 39.8 °F 39.2 °F 76% 29.46 in 10.0 mi SSE 16.1 mph - N/A   Overcast
7:13 AM 44.6 °F 37.2 °F 39.2 °F 81% 29.46 in 10.0 mi SSE 17.3 mph - N/A   Mostly Cloudy
7:34 AM 46.4 °F 39.5 °F 39.2 °F 76% 29.47 in 10.0 mi South 17.3 mph - N/A   Overcast
7:53 AM 46.4 °F 39.8 °F 39.2 °F 76% 29.47 in 10.0 mi South 16.1 mph 20.7 mph N/A   Overcast
8:14 AM 46.4 °F 39.2 °F 39.2 °F 76% 29.48 in 10.0 mi South 18.4 mph - N/A   Overcast
8:34 AM 46.4 °F 39.0 °F 39.2 °F 76% 29.48 in 10.0 mi South 19.6 mph 27.6 mph N/A   Overcast
8:53 AM 46.4 °F 39.0 °F 39.2 °F 76% 29.50 in 10.0 mi SW 19.6 mph 28.8 mph N/A   Overcast
9:13 AM 42.8 °F 34.0 °F 35.6 °F 76% 29.52 in 10.0 mi WSW 20.7 mph 31.1 mph N/A   Overcast
9:34 AM 42.8 °F 34.0 °F 35.6 °F 76% 29.53 in 10.0 mi SW 20.7 mph 27.6 mph N/A   Overcast
9:54 AM 41.0 °F 31.9 °F 33.8 °F 76% 29.54 in 10.0 mi WSW 19.6 mph 25.3 mph N/A   Overcast
10:13 AM 42.8 °F 34.3 °F 33.8 °F 70% 29.55 in 10.0 mi WSW 19.6 mph 27.6 mph N/A   Overcast
10:34 AM 41.0 °F 31.6 °F 33.8 °F 76% 29.56 in 10.0 mi SW 20.7 mph - N/A   Overcast
10:53 AM 41.0 °F 30.5 °F 32.0 °F 70% 29.57 in 10.0 mi WSW 26.5 mph 35.7 mph N/A   Overcast
11:14 AM 41.0 °F 30.7 °F 30.2 °F 65% 29.57 in 10.0 mi WSW 25.3 mph 31.1 mph N/A   Overcast
11:33 AM 41.0 °F 31.1 °F 30.2 °F 65% 29.59 in 10.0 mi WSW 23.0 mph 32.2 mph N/A   Overcast
11:54 AM 42.8 °F 33.3 °F 30.2 °F 61% 29.59 in 10.0 mi WSW 24.2 mph 33.4 mph N/A   Overcast
12:14 PM 42.8 °F 33.1 °F 28.4 °F 57% 29.60 in 10.0 mi WSW 25.3 mph 31.1 mph N/A   Mostly Cloudy
12:33 PM 42.8 °F 34.5 °F 30.2 °F 61% 29.61 in 10.0 mi WSW 18.4 mph 32.2 mph N/A   Overcast
12:53 PM 46.4 °F 37.5 °F 28.4 °F 50% 29.62 in 10.0 mi SW 27.6 mph 34.5 mph N/A   Mostly Cloudy
1:14 PM 44.6 °F 36.6 °F 28.4 °F 53% 29.63 in 10.0 mi SW 19.6 mph 33.4 mph N/A   Scattered Clouds
1:33 PM 44.6 °F 35.1 °F 26.6 °F 49% 29.64 in 10.0 mi SW 27.6 mph 36.8 mph N/A   Scattered Clouds
1:54 PM 44.6 °F 34.9 °F 26.6 °F 49% 29.65 in 10.0 mi SW 28.8 mph 36.8 mph N/A   Scattered Clouds
2:13 PM 44.6 °F 35.5 °F 26.6 °F 49% 29.66 in 10.0 mi SW 25.3 mph 38.0 mph N/A   Scattered Clouds
2:34 PM 44.6 °F 34.7 °F 24.8 °F 46% 29.67 in 10.0 mi SW 29.9 mph 39.1 mph N/A   Scattered Clouds
2:53 PM 46.4 °F 37.7 °F 24.8 °F 43% 29.68 in 10.0 mi SW 26.5 mph 35.7 mph N/A   Mostly Cloudy
3:13 PM 44.6 °F 36.1 °F 24.8 °F 46% 29.69 in 10.0 mi WSW 21.9 mph 31.1 mph N/A   Mostly Cloudy
3:33 PM 44.6 °F 35.5 °F 24.8 °F 46% 29.69 in 10.0 mi WSW 25.3 mph 34.5 mph N/A   Scattered Clouds
3:54 PM 44.6 °F 36.1 °F 24.8 °F 46% 29.70 in 10.0 mi WSW 21.9 mph 33.4 mph N/A   Scattered Clouds
4:14 PM 44.6 °F 35.9 °F 24.8 °F 46% 29.71 in 10.0 mi WSW 23.0 mph 29.9 mph N/A   Mostly Cloudy
4:33 PM 42.8 °F 34.0 °F 24.8 °F 49% 29.72 in 10.0 mi WSW 20.7 mph 27.6 mph N/A   Mostly Cloudy
4:54 PM 42.8 °F 34.5 °F 24.8 °F 49% 29.73 in 10.0 mi WSW 18.4 mph 25.3 mph N/A   Scattered Clouds
5:34 PM 39.2 °F 31.6 °F 24.8 °F 56% 29.75 in 10.0 mi SW 12.7 mph - N/A   Clear
5:54 PM 39.2 °F 30.8 °F 23.0 °F 52% 29.76 in 10.0 mi SW 15.0 mph - N/A   Clear
6:14 PM 39.2 °F 31.2 °F 21.2 °F 49% 29.77 in 10.0 mi SW 13.8 mph - N/A   Clear
6:33 PM 39.2 °F 30.5 °F 19.4 °F 45% 29.78 in 10.0 mi SW 16.1 mph - N/A   Clear
6:54 PM 39.2 °F 31.2 °F 19.4 °F 45% 29.79 in 10.0 mi SW 13.8 mph - N/A   Clear
7:13 PM 37.4 °F 28.9 °F 17.6 °F 45% 29.79 in 10.0 mi SW 13.8 mph 19.6 mph N/A   Clear
7:53 PM 35.6 °F 27.5 °F 17.6 °F 48% 29.81 in 10.0 mi SSW 11.5 mph - N/A   Clear
8:14 PM 35.6 °F 27.5 °F 17.6 °F 48% 29.82 in 10.0 mi SSW 11.5 mph - N/A   Clear
8:34 PM 39.2 °F 29.8 °F 15.8 °F 39% 29.83 in 10.0 mi SW 18.4 mph 23.0 mph N/A   Clear
8:53 PM 39.2 °F 29.8 °F 15.8 °F 39% 29.84 in 10.0 mi SW 18.4 mph - N/A   Clear
9:13 PM 37.4 °F 28.5 °F 15.8 °F 41% 29.85 in 10.0 mi SW 15.0 mph 20.7 mph N/A   Clear
9:53 PM 37.4 °F 27.8 °F 17.6 °F 45% 29.87 in 10.0 mi SW 17.3 mph - N/A   Clear
10:14 PM 37.4 °F 27.5 °F 15.8 °F 41% 29.88 in 10.0 mi SW 18.4 mph 21.9 mph N/A   Clear
10:34 PM 39.2 °F 30.2 °F 14.0 °F 36% 29.88 in 10.0 mi SW 17.3 mph 26.5 mph N/A   Clear
10:53 PM 37.4 °F 27.8 °F 14.0 °F 38% 29.89 in 10.0 mi SW 17.3 mph 24.2 mph N/A   Clear